User: anonymous   Login
Location: Prague
(50.0830°N, 14.4670°E)
Time: 08:11:56
(UTC+01:00)
Language:

XW-2C - Orbit

View from above orbital plane
View from above orbital plane
View from above satellite
View from above satellite

Ground track
Ground track

The orbit data is extracted from the following two-line orbital elements,

1 40906U 15049H   22333.78473440  .00005368  00000-0  24455-3 0  9993
2 40906  97.4955 336.1098 0014230 135.4039 348.3962 15.21007896398032
Epoch (UTC): 29 November 2022 18:50:01
Eccentricity: 0.0014230
inclination: 97.4955°
perigee height: 493 km
apogee height: 512 km
right ascension of ascending node: 336.1098°
argument of perigee: 135.4039°
revolutions per day: 15.21007896
mean anomaly at epoch: 348.3962°
orbit number at epoch: 39803

The dashed part of the orbit path shows where the satellite is in the earth's shadow,  

DLR